Voltar ao catálogo

THORAD AGENA D DEB

AtivoSSO
NORAD 4757·DEBRIS·🇺🇸 United States

Lançado Apr 8, 1970 de Vandenberg Space Force Base

Loading…

Próximas Passagens (próximas 24 horas)

TLE

AtualizadoSource: Space-Track

Época: Sep 14, 2026, 09:31 UTC

1 04757U 70025DF  26257.39719125  .00000293  00000-0  42026-3 0  9997
2 04757  99.3748 125.7042 0011414 213.4711 146.5712 13.64184224792937

Acompanhe THORAD AGENA D DEB em tempo real com AllMySat

Download on the App Store